GFSMW_2pvu_pres_231.txt.gz
Presure
179 192 170 171 184 185 161 173 177 176 167 179 162 177 162 165 171 139 185 166 164 164 166 153 161 146 155 154 149 175 164 165 126 187 189 192 181 190 192 183 171 185 174
184 194 180 171 173 170 176 185 172 174 180 176 169 167 169 164 165 173 164 166 170 165 155 154 167 178 161 156 171 147 165 155 177 175 190 188 154 160 184 193 204 198 174
178 189 192 194 189 182 185 176 188 171 164 175 173 171 168 161 158 163 161 152 152 145 154 159 157 162 174 165 141 169 161 170 183 178 170 145 191 160 170 161 169 232 157
174 184 188 186 185 181 185 180 181 166 174 169 169 178 153 155 157 184 162 146 141 161 176 176 163 188 142 170 174 162 194 203 168 169 143 180 165 195 195 152 245 225 232
177 182 185 176 182 173 170 166 174 170 179 168 172 161 158 160 156 144 153 168 173 158 170 192 157 142 152 202 184 190 159 171 178 178 183 189 184 143 211 243 185 253 192
185 177 171 172 183 173 178 177 165 164 172 182 160 163 152 155 145 171 136 166 167 169 153 154 147 174 174 161 196 157 180 172 176 200 195 219 213 188 165 217 282 304 277
161 182 183 185 170 179 183 179 177 178 166 188 150 184 164 172 159 162 164 159 169 156 161 160 182 188 171 161 190 173 179 211 205 231 195 233 211 227 253 275 271 283 203
191 174 203 194 191 190 177 171 169 184 181 169 171 185 165 157 194 184 189 186 148 148 159 152 163 160 205 198 174 203 197 238 249 206 196 237 259 260 270 286 288 289 280
167 170 178 157 191 186 190 194 195 174 191 175 166 180 160 196 149 173 153 150 144 160 191 177 142 221 176 200 221 195 247 225 263 271 264 290 315 315 306 294 289 291 287
165 183 180 179 183 174 203 188 178 177 160 187 169 163 157 193 183 153 150 190 177 183 156 153 175 203 178 192 221 225 259 274 272 294 309 338 372 423 400 351 335 318 302
185 168 172 171 200 178 178 172 155 163 179 184 166 182 175 195 181 177 184 151 164 147 166 200 217 163 194 225 248 263 269 278 312 339 383 389 385 384 384 400 349 336 352
163 109 178 176 186 168 132 172 174 189 181 167 188 186 153 186 189 169 176 136 154 201 149 205 162 215 237 247 219 280 280 304 384 388 376 364 357 351 170 351 358 357 332
190 166 191 171 169 195 188 190 167 179 186 196 162 188 172 206 200 163 167 188 203 189 212 174 222 202 243 251 275 291 314 398 385 370 377 414 413 397 377 366 352 369 347
171 170 180 175 169 169 182 173 172 172 188 177 167 189 179 193 181 192 194 186 207 192 196 221 223 237 225 248 296 323 402 381 403 416 401 394 397 398 397 377 365 335 344
185 183 175 185 143 176 186 186 172 182 182 187 196 177 194 172 201 156 215 205 190 204 229 231 210 244 254 285 328 402 429 421 419 401 402 398 394 378 367 381 381 361 331
187 179 186 180 165 191 169 188 190 189 189 174 195 192 209 196 153 202 211 202 204 225 235 214 239 249 268 334 398 436 409 390 381 405 393 379 383 366 358 359 361 380 371
180 187 177 174 178 189 184 190 168 181 199 206 187 195 158 195 205 201 203 190 214 227 238 236 247 265 284 353 425 415 392 377 368 364 366 380 382 364 356 350 363 355 361
180 181 184 175 180 179 190 188 180 172 173 201 214 193 188 201 213 220 196 218 216 229 228 239 260 329 386 376 429 408 394 385 377 369 363 357 349 353 351 354 351 350 414
187 172 178 191 181 181 190 184 200 190 211 205 190 178 198 215 204 205 223 214 218 224 236 268 289 378 364 357 389 380 369 363 352 351 346 347 353 358 366 378 358 340 359
174 187 188 180 197 187 195 200 162 201 181 206 193 190 203 203 191 202 197 217 227 237 287 278 385 366 351 342 377 359 354 347 339 335 334 339 347 355 367 381 394 357 357
187 179 188 183 184 194 181 186 195 207 194 203 177 200 201 197 201 212 223 228 234 243 274 384 365 358 338 333 359 362 352 346 333 332 331 340 350 355 371 394 448 429 365
183 181 188 195 193 199 183 180 204 207 200 206 187 213 203 198 214 222 220 228 240 246 361 379 357 346 333 324 324 363 344 337 334 336 352 360 358 368 407 434 432 335 331
192 193 192 199 182 185 186 204 205 203 190 194 214 200 205 212 222 219 222 237 253 328 370 364 353 342 330 319 318 371 342 334 333 342 356 366 375 451 439 399 386 389 322
194 180 193 187 200 187 206 191 198 189 197 213 215 204 223 225 214 223 235 249 257 394 378 363 344 341 325 318 318 330 341 331 331 339 365 381 422 422 429 381 375 338 302
185 192 195 196 175 204 201 202 205 192 215 214 211 214 221 217 238 243 240 252 398 384 376 361 343 337 329 317 320 317 343 331 330 336 356 381 424 427 381 347 327 319 308
191 196 202 202 208 186 189 211 209 215 206 201 211 217 226 239 237 235 250 401 389 353 365 360 350 334 333 328 319 309 345 330 325 337 353 377 419 407 353 317 313 303 306

GFSMW_2pvu_pres_234.txt.gz
Presure
182 187 181 182 176 192 190 181 179 175 183 171 167 175 175 173 180 171 181 154 174 163 154 144 149 165 159 171 208 163 145 141 172 171 200 174 175 199 146 148 184 178 168
183 186 181 184 179 188 194 193 191 188 182 175 184 174 170 161 173 173 172 168 166 156 160 164 170 151 153 156 147 148 161 205 178 165 174 152 167 152 174 169 188 159 145
193 180 168 178 177 181 183 193 189 187 178 183 179 169 164 176 167 162 165 163 162 160 161 174 140 162 160 152 173 156 167 157 153 165 176 187 171 188 190 179 149 171 202
190 184 181 179 186 187 185 180 176 182 183 180 164 157 184 160 175 165 173 168 154 173 131 166 169 158 162 176 161 167 166 161 198 198 173 187 164 189 212 188 214 161 247
189 171 175 177 171 172 162 190 186 170 185 175 175 171 183 154 177 154 155 146 147 160 172 183 188 195 194 197 187 203 152 206 181 173 183 157 203 226 193 225 207 208 251
193 171 170 177 168 187 181 199 183 189 173 181 179 173 182 190 181 176 177 169 170 137 183 192 166 183 162 162 159 168 161 161 217 186 159 201 176 216 215 258 260 257 188
179 178 174 173 188 183 170 171 190 166 178 185 174 183 151 174 183 169 188 180 188 174 165 162 181 185 171 184 173 169 189 204 171 187 183 182 236 234 256 263 270 270 257
181 180 174 180 193 165 157 174 178 179 166 195 202 175 171 176 157 160 177 165 184 153 161 182 165 171 153 174 140 210 210 202 198 184 257 247 253 271 277 274 284 304 301
189 178 182 175 113 163 181 176 168 173 182 174 168 168 164 164 164 157 175 181 197 178 140 157 143 203 199 144 172 206 187 204 226 261 217 265 268 281 292 306 345 370 411
188 194 183 184 175 182 168 171 181 160 174 205 163 178 137 179 190 166 171 153 160 150 136 169 196 198 154 169 207 200 208 221 230 272 272 285 288 304 332 396 389 377 370
193 198 196 185 179 176 163 182 164 148 170 160 179 187 167 167 182 167 167 174 176 174 182 174 185 166 156 197 214 202 218 229 247 286 286 296 317 382 388 420 419 412 393
187 170 180 180 180 178 184 168 169 162 165 150 197 178 150 164 178 171 186 185 168 182 174 156 188 198 212 215 194 190 225 246 290 294 307 327 401 440 430 420 404 397 401
185 174 174 187 184 181 161 184 178 185 170 175 179 188 192 165 162 187 180 192 194 186 204 202 192 195 207 176 212 223 228 249 301 306 330 428 425 409 396 392 400 394 391
175 170 174 172 166 179 188 173 191 184 172 184 175 180 173 169 186 179 187 196 190 184 180 208 194 207 182 200 207 241 241 277 307 313 447 422 405 407 427 404 392 394 380
183 172 177 175 173 173 171 175 184 181 183 185 188 179 167 174 189 167 181 210 181 198 208 179 186 195 216 228 228 228 306 305 311 388 434 421 408 392 389 388 389 387 377
171 175 186 170 177 192 181 173 178 187 175 177 182 188 192 183 158 200 210 184 199 181 202 201 209 218 226 206 232 241 313 312 365 367 393 376 369 377 376 376 373 369 375
179 183 183 169 176 172 182 173 179 174 176 187 185 180 183 198 186 205 195 170 204 199 191 175 222 227 227 226 244 270 316 358 372 354 381 364 352 349 349 345 353 357 364
178 181 182 180 177 178 173 181 182 187 191 191 188 190 178 177 174 202 183 216 193 210 213 213 215 196 235 246 268 309 362 375 359 341 368 356 347 340 338 336 341 345 351
187 183 181 186 179 181 184 174 183 193 186 173 195 195 192 192 203 174 212 195 200 190 201 217 205 219 237 249 301 315 383 365 349 338 374 351 344 340 341 354 351 345 347
180 188 185 191 196 181 170 188 190 190 194 194 192 184 168 208 197 204 214 210 209 200 210 216 223 242 247 242 318 390 378 363 343 334 369 347 341 340 359 368 365 359 355
174 186 189 194 179 175 191 179 190 190 150 191 187 207 181 188 204 209 211 192 196 210 215 220 231 242 235 315 371 380 369 355 341 336 359 344 338 340 366 390 382 381 387
180 192 187 186 191 199 173 196 184 168 185 202 205 212 190 214 199 182 212 219 202 219 224 242 245 284 291 379 386 378 365 349 341 335 354 343 334 349 384 429 452 460 415
181 186 184 195 178 175 193 183 192 163 192 205 196 186 214 206 197 188 203 209 213 222 250 244 233 308 329 392 380 293 303 339 339 336 346 338 334 353 390 430 403 407 388
185 178 191 192 180 196 192 189 180 190 205 200 183 214 200 205 210 200 182 211 224 239 239 238 247 333 411 391 303 314 360 335 338 336 343 338 335 359 423 443 408 376 343
180 186 186 182 199 189 190 189 192 205 195 207 217 212 200 208 214 213 215 225 236 241 236 251 297 427 380 307 321 328 349 341 334 333 343 337 337 366 447 379 389 377 336
192 192 184 192 193 195 182 205 202 208 226 217 200 206 206 216 217 215 229 231 244 253 250 260 427 384 325 335 330 329 334 318 330 332 343 331 335 375 445 364 350 334 318

GFSMW_2pvu_pres_240.txt.gz
Presure
147 142 129 163 140 202 186 189 192 191 186 190 187 204 173 179 182 184 177 172 172 146 167 172 163 161 165 154 170 170 161 173 141 175 161 147 162 177 170 159 146 154 190
127 141 140 163 200 186 184 202 202 201 183 183 180 194 184 200 193 186 183 180 165 160 169 169 167 169 165 156 179 176 163 143 171 169 156 165 177 155 183 150 171 182 183
123 135 150 132 161 173 199 185 198 195 186 181 186 189 183 179 149 159 189 179 172 164 162 159 180 174 174 191 152 169 165 166 155 172 177 162 167 176 174 167 171 178 168
143 147 168 161 155 188 191 192 189 193 182 184 185 186 179 193 178 175 182 186 167 167 172 160 155 175 162 167 153 164 160 142 168 161 152 175 165 164 198 160 176 179 173
159 169 127 160 153 198 168 189 199 193 191 181 180 171 171 136 169 171 163 156 148 177 172 186 146 179 141 155 184 183 148 162 153 152 187 160 151 154 140 192 192 189 195
131 167 146 170 152 150 197 190 193 195 188 174 175 182 187 169 161 166 189 169 179 152 161 173 199 177 151 175 159 143 177 144 164 162 188 143 165 171 180 166 180 186 204
130 147 163 150 154 190 180 190 198 192 177 190 180 186 188 185 171 173 171 150 153 153 179 167 161 155 185 174 170 166 156 155 179 187 186 163 202 178 159 209 184 204 241
151 158 157 161 182 175 162 190 186 188 192 185 194 195 177 187 179 174 171 183 198 174 156 163 178 144 185 187 178 177 147 152 197 188 157 200 200 156 185 180 214 196 258
134 163 109 175 157 184 162 193 188 184 174 182 191 179 181 183 152 167 188 161 180 165 180 169 174 177 184 167 181 191 201 190 171 190 204 199 174 202 185 194 191 248 273
168 161 172 148 161 156 177 150 191 185 185 191 175 175 177 169 177 184 163 178 168 184 172 183 173 179 178 178 165 164 180 174 168 183 199 162 189 192 200 187 244 266 307
140 129 156 161 165 188 150 162 202 192 191 191 177 186 178 173 188 177 183 175 190 176 179 168 180 187 175 169 194 180 178 196 179 211 198 209 204 195 214 232 271 298 316
150 167 175 175 178 138 169 187 198 200 174 183 190 184 174 185 187 191 178 168 178 183 174 179 178 175 179 183 191 184 160 205 182 183 190 192 209 226 236 254 290 311 326
175 180 177 182 126 162 173 186 202 177 182 198 187 191 165 183 173 177 152 181 168 177 188 184 178 185 179 191 185 199 201 195 196 198 211 191 210 229 233 268 305 336 404
187 181 181 182 184 179 187 188 179 183 183 172 181 169 182 178 144 169 180 176 170 170 181 179 178 156 187 186 191 182 196 187 182 181 190 215 201 235 275 302 350 372 384
181 178 176 188 186 181 188 197 175 184 191 170 181 168 183 181 173 174 179 182 149 164 184 178 183 190 179 185 195 201 199 216 211 213 205 220 201 262 295 305 328 398 343
188 188 199 194 187 181 185 196 179 192 166 174 174 184 178 134 181 179 172 172 181 183 181 178 184 193 185 190 202 202 193 214 214 213 219 227 243 262 309 295 409 337 356
191 198 198 181 163 194 194 182 191 176 181 190 174 154 171 181 188 171 143 182 172 182 182 165 194 196 188 204 203 209 189 224 213 203 227 236 250 315 346 372 352 354 351
184 188 189 186 183 189 189 186 199 176 173 178 186 176 133 183 181 177 164 175 175 185 173 185 192 187 193 198 206 200 216 223 228 214 236 237 253 325 317 367 359 354 352
193 196 195 190 184 182 193 179 192 174 185 177 172 184 186 180 179 187 173 174 147 185 199 183 187 191 204 204 209 197 221 223 223 226 235 248 265 332 383 363 365 350 346
195 201 188 182 181 187 188 168 183 179 181 187 172 181 187 185 183 179 187 172 189 191 198 173 194 193 205 210 206 213 226 219 222 235 247 264 310 389 365 369 328 352 362
199 191 191 175 191 184 211 195 197 184 201 185 179 189 195 183 181 191 173 191 189 199 177 187 202 198 207 173 203 219 248 229 233 247 301 327 315 370 375 336 353 359 364
180 192 184 182 181 186 203 178 196 189 180 181 175 194 187 191 191 187 171 198 200 200 174 204 198 213 217 212 224 229 233 237 252 313 318 327 333 358 346 317 354 357 372
195 182 176 184 187 199 178 193 174 183 186 184 196 185 192 191 180 183 190 196 198 190 202 204 202 214 222 226 228 233 227 248 292 243 290 330 366 359 316 323 366 351 372
181 182 180 188 199 202 181 197 185 184 190 191 189 193 190 185 192 183 198 195 195 202 205 202 204 230 216 236 231 227 241 254 235 326 324 368 360 333 308 329 355 374 446
185 182 194 190 198 184 194 186 193 190 185 198 189 190 198 187 198 183 222 191 193 200 213 192 238 211 236 242 230 237 238 287 341 312 379 294 346 306 319 348 347 418 411
186 188 185 196 187 197 192 192 199 193 182 192 202 203 185 195 195 203 191 215 221 205 208 228 242 233 244 228 233 240 262 302 320 266 361 318 321 299 314 322 344 396 366

GFSMW_2pvu_pres_246.txt.gz
Presure
129 135 126 128 129 144 108 131 132 102 138 119 136 185 186 201 186 188 190 187 162 181 200 186 189 190 183 174 177 174 167 164 163 155 152 176 163 150 179 178 149 175 162
122 112 134 154 96 173 112 112 127 110 124 119 125 190 137 177 149 178 189 192 183 191 173 186 191 182 178 175 161 162 159 169 186 166 178 176 181 129 179 157 170 149 172
130 131 170 98 113 122 115 116 123 151 122 122 162 158 129 168 175 166 183 192 187 183 181 190 205 185 169 146 165 181 180 174 170 167 147 152 174 172 153 154 169 170 182
124 171 113 80 85 135 143 119 141 126 105 154 167 142 123 179 191 158 137 183 191 190 146 188 161 180 177 174 153 156 162 178 171 164 151 186 155 169 173 167 163 176 171
120 135 73 76 128 122 123 109 116 144 128 149 161 141 135 186 186 167 177 197 183 179 126 177 188 186 175 179 136 161 134 194 176 153 167 151 171 168 178 174 161 150 165
115 121 165 87 75 160 130 146 106 130 107 134 163 123 130 187 169 170 123 191 190 177 124 177 172 170 174 172 170 158 185 182 178 165 169 161 164 165 152 161 165 136 157
142 128 106 80 81 126 152 118 120 117 121 179 155 160 160 177 185 171 190 183 174 190 174 181 172 182 190 183 171 183 175 161 168 167 169 151 177 177 183 173 145 179 183
113 72 100 104 102 178 150 129 137 115 121 156 130 167 160 182 166 180 177 188 180 173 176 185 182 190 171 179 141 172 169 173 156 172 164 185 176 171 175 163 169 171 189
103 133 201 196 192 141 124 161 114 116 183 124 151 180 171 173 194 178 167 190 177 179 175 178 189 193 136 173 173 163 171 162 177 171 178 175 182 186 179 160 170 216 161
171 121 147 179 136 181 124 142 139 132 119 108 169 155 167 175 181 181 180 171 174 178 182 185 163 167 163 156 164 180 172 168 160 182 153 185 179 179 175 187 191 196 189
142 141 143 121 148 110 93 98 190 141 125 190 125 183 173 182 177 179 178 173 176 180 171 178 171 155 165 182 178 157 153 180 156 176 167 163 168 172 176 187 190 181 201
135 144 132 106 160 206 149 108 128 127 183 131 184 179 181 170 180 177 184 170 181 172 171 180 167 171 173 174 161 176 162 166 191 169 182 185 173 172 188 194 159 182 219
164 168 119 93 212 177 150 216 205 132 136 126 192 186 170 170 176 179 182 161 185 176 181 174 192 166 182 170 178 179 184 191 169 176 180 183 175 192 184 167 193 213 230
91 109 107 112 105 100 205 185 141 172 165 122 184 184 169 172 180 184 182 174 175 161 181 185 170 197 186 185 172 180 175 183 183 187 183 150 186 190 179 182 195 221 227
181 172 185 104 181 208 189 175 189 188 110 174 142 175 182 180 180 179 185 176 179 175 175 158 181 193 181 181 176 185 176 178 173 180 176 179 198 194 170 191 222 224 210
116 206 206 206 119 203 205 203 136 205 125 188 182 188 179 172 183 180 181 182 180 172 189 178 174 184 182 198 182 180 174 181 181 194 182 207 192 190 197 214 230 216 226
97 216 208 99 207 205 120 128 141 123 147 191 187 188 179 176 187 184 182 179 179 179 184 173 178 180 167 184 170 172 177 173 185 194 192 180 201 185 199 214 223 215 218
212 101 153 153 155 115 128 171 218 199 194 195 191 184 187 186 188 179 180 182 183 184 180 173 171 186 187 200 179 166 180 179 194 185 203 211 192 184 203 212 224 234 225
215 160 214 202 205 207 201 207 206 206 201 201 196 182 186 192 189 183 182 180 183 175 183 171 195 163 189 184 187 178 174 187 199 205 189 205 184 203 196 208 229 217 220
201 211 212 201 206 209 202 198 207 202 199 204 189 188 193 188 166 184 188 185 184 176 183 176 187 181 198 178 181 186 197 193 199 173 202 215 196 215 218 203 245 229 218
210 212 210 202 207 200 200 196 220 209 204 197 166 194 192 188 190 187 189 194 183 194 190 178 180 192 183 183 197 184 193 199 209 202 184 212 202 225 210 237 232 234 261
152 187 207 202 206 202 201 198 209 195 202 185 201 195 192 184 189 187 191 191 189 196 180 181 183 187 188 189 179 189 212 195 194 203 198 207 207 224 210 231 219 254 266
214 210 202 199 208 199 202 209 199 191 197 194 184 178 191 191 184 186 201 190 193 192 179 182 171 190 193 181 190 209 189 204 202 190 214 215 209 227 234 218 242 280 350
221 211 208 204 212 201 211 211 217 211 202 201 201 183 180 199 183 198 192 178 196 196 199 198 192 190 193 186 190 203 186 201 201 206 221 217 225 219 241 247 273 281 344
208 203 203 195 193 208 197 204 194 190 190 181 195 189 179 193 191 196 200 189 179 191 196 209 193 191 189 201 195 193 203 205 215 223 195 224 201 245 220 267 260 349 327
204 205 201 205 203 209 195 186 186 188 204 178 198 190 191 187 207 184 185 181 193 189 194 187 189 191 189 202 201 193 201 218 205 192 216 219 223 250 271 253 330 341 326